Weather History for Vero Beach, FL

Change the Weather History Date:

Saturday, May 4, 2013

  Actual Average Record
Temperature  
Mean Temperature 75 °F 74 °F  
Max Temperature 86 °F 83 °F 93 °F (1984)
Min Temperature 64 °F 65 °F 51 °F (1999)
Degree Days  
Heating Degree Days 0 0  
Month to date heating degree days 0 0  
Since 1 July heating degree days 398 455  
Cooling Degree Days 10 9  
Month to date cooling degree days 36 35  
Year to date cooling degree days 627 493  
Growing Degree Days 24 (Base 50)    
Moisture  
Dew Point 67 °F    
Average Humidity 76    
Maximum Humidity 100    
Minimum Humidity 51    
Precipitation  
Precipitation 0.26 in 0.08 in 2.46 in (2005)
Month to date precipitation 3.84 0.31  
Year to date precipitation 10.87 12.32  
Sea Level Pressure  
Sea Level Pressure 29.74 in    
Wind  
Wind Speed 7 mph (SW)    
Max Wind Speed 15 mph    
Max Gust Speed 20 mph    
Visibility 8 miles    
Events Rain    
T = Trace of Precipitation, MM = Missing Value Source: NWS Daily Summary

Daily Weather History Graph

Daily Weather History Graph

Search for Another Location

Airport:

Trip Planner

Search our weather history database for the weather conditions in past years. The results will help you decide how hot, cold, wet, or windy it might be!

Date:

Astronomy

May. 04, 2013 Rise Set
Actual Time 6:39 AM EDT 7:57 PM EDT
Civil Twilight 6:14 AM EDT 8:22 PM EDT
Nautical Twilight 5:45 AM EDT 8:52 PM EDT
Astronomical Twilight 5:14 AM EDT 9:22 PM EDT
Moon 3:09 AM EDT (5/4) 3:18 PM EDT (5/4)
Length of Visible Light 14h 07m
Length of Day
13h 17m
Waning Crescent, 27% of the Moon is Illuminated
May 4
Waning Crescent
May 9
New
May 18
First Quarter
May 25
Full
May 31
Last Quarter

Hourly Weather History & Observations

Time (EDT) Temp. Heat Index Dew Point Humidity Pressure Visibility Wind Dir Wind Speed Gust Speed Precip Events Conditions
12:53 AM 68.0 °F - 66.9 °F 96% 29.74 in 10.0 mi SSE 3.5 mph - N/A   Clear
1:53 AM 66.0 °F - 66.0 °F 100% 29.73 in 7.0 mi Calm Calm - N/A   Mostly Cloudy
2:12 AM 66.2 °F - 66.2 °F 100% 29.71 in 10.0 mi SE 3.5 mph - N/A   Overcast
2:24 AM 68.0 °F - 66.2 °F 94% 29.71 in 10.0 mi Calm Calm - N/A   Mostly Cloudy
2:53 AM 66.9 °F - 66.0 °F 97% 29.70 in 10.0 mi South 3.5 mph - N/A   Clear
3:53 AM 66.0 °F - 66.0 °F 100% 29.70 in 10.0 mi SW 4.6 mph - N/A   Clear
4:53 AM 64.9 °F - 64.9 °F 100% 29.71 in 7.0 mi Calm Calm - N/A   Clear
5:22 AM 64.4 °F - 64.4 °F 100% 29.72 in 2.5 mi Calm Calm - N/A   Mostly Cloudy
5:30 AM 64.4 °F - 64.4 °F 100% 29.72 in 1.2 mi Calm Calm - N/A   Mostly Cloudy
5:34 AM 64.4 °F - 64.4 °F 100% 29.72 in 2.5 mi Calm Calm - N/A   Mostly Cloudy
5:41 AM 66.2 °F - 64.4 °F 94% 29.72 in 6.0 mi Calm Calm - N/A   Overcast
5:53 AM 66.0 °F - 64.9 °F 96% 29.72 in 8.0 mi Calm Calm - N/A   Overcast
6:20 AM 66.2 °F - 64.4 °F 94% 29.72 in 8.0 mi Calm Calm - N/A   Scattered Clouds
6:53 AM 66.0 °F - 64.9 °F 96% 29.73 in 8.0 mi Calm Calm - N/A   Clear
7:53 AM 69.1 °F - 66.9 °F 93% 29.74 in 10.0 mi SSW 5.8 mph - N/A   Clear
8:27 AM 69.8 °F - 68.0 °F 94% 29.74 in 10.0 mi SSW 5.8 mph - N/A   Partly Cloudy
8:53 AM 70.0 °F - 66.9 °F 90% 29.74 in 10.0 mi SW 9.2 mph - N/A   Scattered Clouds
9:53 AM 71.1 °F - 66.9 °F 87% 29.75 in 10.0 mi SW 10.4 mph - N/A   Scattered Clouds
10:07 AM 71.6 °F - 66.2 °F 83% 29.76 in 10.0 mi SW 10.4 mph - N/A   Mostly Cloudy
10:53 AM 73.0 °F - 66.0 °F 79% 29.76 in 10.0 mi SW 6.9 mph - N/A   Mostly Cloudy
11:53 AM 75.9 °F - 64.9 °F 69% 29.76 in 10.0 mi West 9.2 mph - N/A   Mostly Cloudy
12:25 PM 80.6 °F 82.7 °F 66.2 °F 61% 29.75 in 10.0 mi WSW 12.7 mph 19.6 mph N/A   Scattered Clouds
12:53 PM 80.1 °F 82.1 °F 66.0 °F 62% 29.75 in 10.0 mi SW 11.5 mph - N/A   Scattered Clouds
1:53 PM 80.1 °F 81.9 °F 64.9 °F 60% 29.72 in 10.0 mi WSW 9.2 mph 17.3 mph N/A   Mostly Cloudy
2:53 PM 84.9 °F 86.6 °F 64.9 °F 51% 29.71 in 10.0 mi West 13.8 mph 19.6 mph N/A   Scattered Clouds
3:53 PM 84.9 °F 86.1 °F 64.0 °F 49% 29.71 in 10.0 mi West 9.2 mph - N/A   Mostly Cloudy
4:53 PM 82.9 °F 85.4 °F 66.9 °F 58% 29.70 in 10.0 mi NE 10.4 mph - N/A   Scattered Clouds
5:53 PM 81.0 °F 83.8 °F 68.0 °F 65% 29.71 in 10.0 mi NE 5.8 mph - N/A   Scattered Clouds
6:53 PM 80.1 °F 82.9 °F 69.1 °F 69% 29.71 in 10.0 mi ENE 9.2 mph - N/A   Scattered Clouds
7:53 PM 75.9 °F - 68.0 °F 76% 29.73 in 10.0 mi East 5.8 mph - N/A   Clear
8:53 PM 75.0 °F - 68.0 °F 79% 29.75 in 10.0 mi East 6.9 mph - N/A   Clear
9:53 PM 73.0 °F - 68.0 °F 84% 29.77 in 10.0 mi ESE 4.6 mph - N/A   Clear
10:53 PM 75.0 °F - 70.0 °F 84% 29.79 in 10.0 mi ESE 3.5 mph - N/A   Overcast
11:22 PM 73.4 °F - 69.8 °F 88% 29.80 in 6.0 mi West 8.1 mph - N/A   Haze
11:27 PM 73.4 °F - 69.8 °F 88% 29.80 in 1.2 mi Variable 3.5 mph - 0.05 in Rain Heavy Rain
11:38 PM 73.4 °F - 69.8 °F 88% 29.80 in 3.0 mi WNW 6.9 mph - 0.24 in Rain Rain
11:53 PM 73.0 °F - 69.1 °F 87% 29.80 in 10.0 mi WNW 8.1 mph - 0.25 in Rain Light Rain